Theta_e
331 334 339 340 342 343 343 343 342 342 344 344 344 344 344 344 344 344 343 343 342 341 341 342 341 342 341 340 340 339 339 338 338 339 339 338 339 340 339 340 341 341 340 340 342 336 332 332 329 326 325 327 330 332 333 334 335 336 336 337 339 340 340 338 337 337 337 337 338 340 340 338 335 331 326 326 326 329 332 335 338 340 340 341 341
327 333 339 340 341 343 344 343 342 343 344 344 344 343 344 343 344 344 343 343 342 341 341 342 342 342 341 339 340 339 339 339 338 338 338 338 339 339 339 340 340 340 340 340 341 339 335 333 332 329 325 324 326 328 330 331 332 334 335 336 338 339 340 338 336 334 334 334 335 337 337 337 334 330 326 324 323 324 326 331 336 339 340 340 340
326 333 336 339 340 341 343 343 343 343 343 343 344 343 344 344 344 344 343 343 342 341 341 342 342 341 341 339 338 339 339 339 339 338 338 338 338 338 338 339 340 339 340 339 340 340 337 333 331 329 327 326 325 325 326 327 329 331 333 336 337 338 338 338 337 336 335 334 334 334 334 334 333 330 326 324 323 321 322 326 332 337 339 340 340
326 331 334 338 339 340 343 343 343 343 344 343 344 343 343 343 344 344 343 342 341 341 341 341 341 341 341 339 338 338 338 339 338 338 338 337 336 336 336 337 338 338 339 339 339 339 337 333 331 329 327 327 326 325 326 325 326 326 327 332 336 337 337 338 337 337 336 336 336 336 334 332 333 332 328 326 324 322 322 322 326 332 337 340 340
326 331 333 336 337 340 341 343 343 342 343 343 344 343 343 343 343 343 342 342 341 340 341 341 341 341 340 339 337 336 337 338 337 337 337 337 336 334 333 334 336 337 338 339 339 338 337 335 333 331 329 327 326 325 325 325 326 325 324 325 329 334 337 337 336 335 335 337 337 337 336 334 334 334 333 332 331 329 327 326 325 326 329 333 336
327 331 332 335 336 338 340 343 343 341 342 342 342 343 343 342 343 343 342 342 341 340 341 340 341 341 339 339 337 336 337 337 337 336 336 337 336 333 330 331 334 337 338 338 339 338 337 336 335 334 332 330 328 326 326 326 327 327 327 324 323 325 331 334 335 334 332 335 338 337 336 336 337 337 337 336 336 335 333 332 330 327 326 326 327
328 330 333 334 335 337 338 341 342 342 342 342 342 342 342 342 342 342 342 342 341 340 341 341 340 341 339 338 337 336 336 337 337 336 335 336 335 332 329 329 333 337 338 337 337 338 337 336 335 334 334 333 332 331 330 330 330 330 330 329 326 319 321 328 332 333 331 334 337 336 335 335 336 337 338 337 336 336 334 333 332 331 329 327 326
329 331 333 333 335 336 337 340 342 342 341 342 341 342 341 341 342 341 342 341 341 341 340 341 341 340 338 337 337 335 335 336 336 335 335 335 335 332 330 331 334 337 337 337 337 337 336 334 333 332 332 333 333 333 333 332 330 329 327 326 325 316 313 321 327 330 330 334 336 335 335 333 334 336 337 336 335 335 333 332 332 332 331 330 329
329 332 333 333 334 335 337 338 342 342 341 341 341 342 342 342 342 341 341 341 340 340 340 341 341 339 337 336 336 335 335 335 335 335 334 334 334 333 332 332 335 336 336 337 337 336 335 333 332 331 329 329 332 333 332 331 327 322 319 314 312 308 305 315 325 327 328 334 335 333 334 333 333 335 336 335 334 333 332 331 330 331 332 332 331
329 332 333 334 333 335 337 338 341 342 341 341 341 341 341 342 342 341 341 340 340 340 340 340 340 339 337 336 334 334 334 334 335 334 333 333 333 333 332 333 334 335 336 337 336 335 334 332 330 330 328 325 326 330 331 328 322 314 309 305 302 302 301 310 322 325 327 331 333 332 333 333 332 334 335 335 334 332 330 329 330 331 332 334 333
330 332 334 335 334 334 336 337 339 340 340 341 341 339 340 342 342 341 340 340 340 340 340 339 340 338 337 337 334 334 334 334 335 334 333 333 332 333 333 333 334 335 336 336 335 334 331 330 329 327 326 322 319 323 328 323 314 306 302 301 300 300 302 309 319 324 326 330 331 331 332 332 330 331 333 334 333 332 330 330 332 333 333 334 334
329 332 333 336 335 335 336 337 338 339 340 340 341 339 339 341 341 341 339 340 339 339 340 339 340 338 337 337 336 337 336 335 335 335 334 333 331 331 332 332 334 335 335 335 334 333 330 330 328 326 326 324 316 311 315 312 304 301 300 300 300 300 303 309 316 323 326 328 330 331 331 332 330 330 332 333 333 331 331 331 333 334 333 334 333
328 331 333 335 336 336 335 337 338 339 340 340 341 339 339 340 340 340 339 340 339 339 339 338 338 338 337 337 338 337 336 336 336 336 335 334 331 330 331 332 334 334 334 334 333 332 330 329 329 328 327 326 318 307 302 302 300 300 300 300 300 301 304 309 314 321 325 328 330 331 331 333 331 331 332 333 332 332 331 331 332 333 332 333 334
327 329 332 334 335 336 335 336 337 339 340 340 340 339 339 340 340 339 340 339 338 339 339 338 337 338 337 336 337 336 336 337 337 336 336 335 331 330 331 332 333 334 333 332 332 331 330 330 330 328 328 323 314 305 299 299 300 299 300 300 300 301 303 308 313 319 323 327 329 330 332 333 331 331 333 332 332 331 331 330 331 332 332 333 332
329 330 331 333 334 335 335 335 336 338 339 339 340 339 339 339 340 339 340 338 337 338 338 338 337 338 338 337 336 335 335 336 337 337 336 336 333 331 331 332 333 333 331 331 331 330 330 330 330 328 328 321 305 299 299 299 300 299 300 300 300 301 302 306 311 316 321 326 329 330 332 332 331 331 331 330 330 330 329 329 330 331 331 332 331
329 331 332 332 334 335 335 335 336 337 338 339 339 339 339 338 339 339 339 338 337 338 337 337 336 338 339 337 336 334 334 336 337 337 337 337 334 332 331 332 332 332 331 330 329 329 329 327 328 327 328 323 304 297 299 298 299 300 300 301 301 301 302 305 309 314 319 324 327 330 331 331 331 330 329 328 328 328 327 326 329 329 330 330 330
328 331 332 332 333 334 335 335 335 336 337 339 338 339 339 339 339 339 339 337 336 337 337 336 335 337 338 338 337 335 334 336 337 337 338 337 336 334 332 332 331 331 331 330 329 328 329 326 327 325 325 323 307 297 298 298 299 299 300 301 301 301 302 303 306 311 315 321 325 328 330 330 330 329 328 328 327 327 324 324 327 327 327 328 328
327 329 331 333 334 334 335 335 335 336 337 338 338 338 339 339 339 339 338 337 336 336 337 336 335 336 338 338 337 335 334 335 336 336 337 337 336 335 333 332 332 331 331 330 328 328 329 328 327 326 325 322 310 299 298 298 298 299 300 300 301 301 301 303 305 308 312 317 322 326 328 329 329 328 327 327 326 325 322 321 323 324 324 325 326
327 329 332 334 335 335 335 335 335 335 337 338 338 337 339 339 338 339 338 337 336 336 336 336 335 336 337 337 337 336 334 335 336 336 337 337 336 335 334 332 332 331 331 330 327 326 328 328 327 326 325 323 314 303 297 298 298 299 299 300 300 300 301 301 303 306 308 311 315 320 324 327 328 328 327 326 326 325 323 320 319 319 319 322 324
327 329 331 335 336 337 336 335 335 335 336 337 338 338 339 339 338 338 338 338 336 336 336 336 335 335 336 336 337 335 333 334 336 336 336 336 336 336 334 333 332 330 331 330 327 326 326 326 326 325 325 323 317 305 297 298 298 299 299 299 300 300 300 301 301 303 305 306 309 312 317 323 326 327 326 326 325 325 324 320 316 314 314 319 322
328 328 328 331 334 337 337 336 336 335 335 335 337 338 338 339 339 338 338 338 337 336 336 335 335 335 336 336 336 335 333 334 335 335 335 335 336 335 335 334 332 330 330 329 328 327 325 324 324 324 323 320 316 306 298 297 298 298 298 299 299 299 300 300 300 300 302 302 303 304 308 314 320 324 325 324 324 322 320 316 314 314 316 318 320
328 330 330 330 330 333 335 336 336 336 335 335 335 337 337 338 339 338 337 337 337 337 336 335 334 334 336 335 336 334 333 333 334 335 335 335 335 334 334 333 332 331 330 329 329 327 325 324 323 322 321 318 315 307 298 297 297 298 298 299 299 299 299 299 300 299 300 300 300 300 303 307 313 320 322 320 318 316 311 308 310 314 317 319 319
323 327 329 331 332 332 333 334 336 336 336 335 335 335 336 336 338 339 338 337 337 338 337 336 335 335 335 335 335 334 333 333 333 334 335 335 335 334 333 333 333 332 331 330 328 326 325 325 324 322 321 318 315 307 299 297 297 298 298 298 299 299 299 299 299 299 299 299 299 299 300 303 307 313 318 317 314 310 304 304 308 310 314 319 319
314 316 321 326 329 332 333 333 334 335 336 337 336 336 335 335 336 338 339 338 338 338 338 337 336 335 335 334 333 333 332 332 332 333 334 336 336 334 334 334 333 332 331 330 328 326 325 324 324 323 322 320 315 307 298 297 297 297 298 298 299 299 299 299 299 300 300 299 299 299 299 301 302 306 313 316 316 311 305 306 308 309 315 319 318
308 310 313 317 321 325 330 333 334 334 335 337 337 336 336 335 336 336 337 338 339 339 338 338 338 337 336 335 333 332 332 333 333 331 332 333 335 336 335 333 333 332 331 329 327 325 324 324 325 324 323 322 318 311 300 297 297 297 298 298 299 299 300 299 300 300 300 300 300 300 299 299 300 300 305 313 318 315 307 309 311 313 318 319 319
309 309 310 311 314 317 323 330 333 334 334 336 337 337 335 335 336 336 336 336 337 338 338 337 337 338 337 335 334 334 333 333 334 333 332 330 330 334 336 333 333 333 330 329 328 325 324 324 325 325 324 322 321 317 306 298 297 297 297 298 299 299 299 299 299 300 300 300 299 300 300 299 300 299 299 305 316 317 311 313 316 318 320 319 320
310 312 311 311 312 313 319 324 329 332 334 336 336 336 335 335 336 336 337 337 337 336 336 336 336 336 337 336 335 335 334 334 335 335 334 332 329 331 332 332 332 333 331 330 330 328 325 325 326 325 324 323 321 320 313 302 296 297 297 297 298 298 298 299 299 299 299 299 299 299 300 299 299 299 298 299 309 317 314 313 318 320 320 319 319
311 314 315 314 313 313 314 319 324 328 332 335 335 336 335 334 335 335 336 336 339 337 334 334 335 336 335 334 334 334 334 334 334 334 333 334 334 332 331 331 331 332 332 331 330 329 327 325 326 325 324 323 322 321 318 310 301 297 296 297 297 298 298 297 298 298 298 298 298 299 299 299 299 299 299 297 303 316 318 315 318 321 320 319 319
312 315 317 317 316 315 314 315 318 322 327 332 334 334 334 334 334 335 335 334 336 338 337 334 332 335 335 335 333 332 333 332 332 334 333 333 334 332 330 331 330 330 330 329 330 330 327 325 326 326 325 324 323 322 320 317 311 302 296 296 297 298 298 297 297 297 297 297 297 298 298 298 299 298 299 298 299 312 320 320 320 320 320 320 319
311 315 318 319 319 318 317 316 317 319 324 329 332 333 333 333 333 333 335 334 332 333 336 336 332 331 333 335 335 334 334 332 331 331 332 333 334 332 329 329 330 330 329 329 330 329 328 327 327 327 325 324 323 322 321 319 317 310 300 296 297 298 298 298 297 297 297 297 297 297 298 298 299 298 298 298 298 305 317 322 321 320 321 320 320
312 316 319 320 321 321 321 320 320 321 323 328 330 331 332 332 332 332 332 332 332 331 331 336 335 331 330 331 334 334 335 334 331 330 330 332 333 332 330 328 328 330 330 330 330 328 328 328 328 327 325 324 323 322 321 319 318 315 307 299 296 298 299 298 298 297 297 297 297 297 298 298 298 298 298 298 298 300 309 318 321 321 321 321 321
311 314 318 321 323 323 324 325 324 325 325 327 329 330 331 331 331 331 331 331 331 331 330 333 334 332 330 329 331 333 333 332 332 331 330 330 330 330 330 329 328 330 331 331 329 329 329 328 327 326 325 324 323 322 321 320 318 317 313 306 299 297 298 299 299 298 297 296 296 296 297 297 297 298 298 298 298 299 302 308 313 318 321 321 321
310 313 317 321 323 324 325 326 326 327 327 328 329 330 330 330 331 331 332 331 331 331 331 331 332 331 330 330 330 331 331 331 331 331 330 330 329 330 331 330 330 330 331 331 330 329 329 328 327 326 326 325 324 323 321 320 319 317 316 312 305 301 299 299 299 299 298 296 295 296 296 297 297 297 298 298 298 298 300 303 306 312 316 318 320
310 314 318 320 323 324 325 327 327 328 328 328 329 329 329 330 331 331 331 331 332 331 331 332 331 331 331 331 331 331 331 332 331 331 330 330 329 329 331 330 329 329 329 329 329 329 329 328 327 326 326 325 324 323 321 320 318 317 316 314 312 309 306 302 300 298 298 297 296 295 296 296 297 297 298 298 298 298 299 301 303 306 311 314 316
310 313 316 318 321 324 325 326 327 328 328 329 329 329 330 330 331 331 330 330 330 329 330 330 330 331 331 331 331 331 331 332 331 331 330 330 330 330 331 330 328 328 328 329 329 329 328 327 327 326 325 325 324 323 321 319 318 316 315 314 313 312 311 307 302 299 298 298 296 295 296 296 296 297 297 297 298 298 298 299 301 303 306 310 313
308 311 314 317 321 323 324 325 326 327 327 328 328 328 329 329 329 328 328 328 327 325 324 325 326 326 327 327 328 328 329 329 330 330 329 328 328 328 328 328 329 328 328 328 328 328 327 327 326 326 325 324 324 322 320 319 318 316 315 314 313 312 311 307 303 300 298 298 297 296 296 296 296 296 297 297 297 298 297 298 299 301 303 305 308
306 310 314 317 319 321 323 324 324 325 325 326 326 327 327 327 326 325 326 325 324 323 321 322 322 321 322 322 322 323 324 324 325 326 325 325 324 323 324 325 325 324 324 324 324 324 323 323 323 323 323 322 322 322 319 318 317 316 315 314 314 313 310 308 305 302 300 298 297 297 296 296 296 296 296 296 297 297 297 297 298 299 301 302 304
306 309 312 315 317 318 320 322 322 323 324 324 324 324 324 324 323 322 322 321 321 320 320 321 320 319 319 319 319 320 321 321 322 322 322 321 321 321 321 322 322 321 321 320 320 320 320 319 319 319 319 319 320 319 318 317 316 316 316 315 314 313 311 310 307 305 303 300 298 297 296 296 296 296 296 296 296 297 297 297 297 297 298 299 301
306 308 311 314 316 317 318 319 320 321 322 322 322 321 322 321 320 320 319 317 317 317 317 318 316 316 316 316 318 319 319 319 319 319 319 319 319 319 318 318 319 319 319 319 318 318 318 318 317 316 316 317 317 317 316 315 314 315 315 314 313 312 311 310 308 306 304 302 300 298 297 297 296 296 296 296 296 296 297 297 297 297 297 298 299
304 306 309 312 314 315 316 318 318 318 320 320 320 320 319 318 317 317 314 311 311 311 311 311 310 311 311 312 314 314 314 315 315 315 316 316 316 315 316 316 316 316 316 316 316 315 316 316 315 316 315 315 315 314 314 312 312 312 312 311 310 309 308 307 306 305 304 303 301 299 298 297 297 296 296 296 296 296 296 296 297 297 297 297 297
302 304 307 308 310 312 314 314 314 316 318 318 318 317 316 315 313 310 307 306 307 308 307 307 307 307 308 310 309 309 310 310 310 311 313 313 313 313 314 314 314 314 313 312 312 312 313 313 313 313 313 313 312 311 310 309 307 307 307 306 306 306 305 304 304 304 304 303 300 299 299 298 297 297 297 296 296 296 296 296 296 296 297 297 297
298 300 302 303 306 309 310 310 312 314 314 313 314 313 312 311 309 306 304 304 304 304 304 303 303 305 306 307 307 306 307 307 307 308 309 309 309 310 310 310 311 311 311 311 311 311 311 310 310 310 310 310 309 308 307 306 304 302 300 300 303 304 303 303 304 303 301 300 299 299 298 297 297 297 296 296 296 296 296 295 295 295 296 296 296
296 297 298 301 303 305 306 307 310 310 309 309 309 308 307 307 306 304 304 303 301 301 301 300 301 302 302 302 302 302 303 304 304 304 305 304 304 305 305 306 307 308 309 310 310 310 309 308 308 308 308 307 306 306 305 304 303 301 299 300 300 299 302 303 300 300 301 301 301 298 297 297 298 298 297 297 296 296 296 296 296 296 295 296 296
296 296 297 298 300 302 303 305 306 307 306 306 306 305 304 304 303 302 301 301 299 300 300 300 300 300 300 300 299 300 300 300 300 301 301 301 301 302 302 303 303 304 305 305 306 306 305 305 305 305 304 304 304 303 303 303 302 302 301 300 297 297 302 301 296 299 303 302 301 298 299 300 299 298 297 296 297 296 297 296 296 296 296 296 296
294 294 294 296 298 301 302 303 303 304 304 304 304 304 303 303 302 301 301 301 300 300 299 298 298 298 298 298 298 298 299 299 299 299 299 299 299 299 300 300 300 300 301 301 301 301 301 302 302 302 301 301 301 301 301 301 301 301 300 299 298 300 302 299 295 299 301 300 300 299 300 300 298 298 297 298 298 298 297 297 296 296 296 296 296
293 294 294 295 297 300 301 302 302 302 302 302 303 303 303 302 302 301 300 298 295 294 293 294 295 295 295 295 296 296 297 298 298 298 298 298 298 298 298 298 298 298 298 298 298 298 299 299 299 300 300 299 300 300 299 299 299 300 299 298 299 299 298 296 296 298 298 298 299 299 299 298 298 298 298 298 299 298 298 297 297 297 296 296 296
292 294 295 296 297 299 300 301 301 301 301 301 302 302 302 301 300 299 297 295 291 289 290 291 291 292 292 292 292 293 294 295 295 296 296 297 297 297 297 297 297 297 297 297 297 297 297 297 297 298 298 298 299 299 298 298 298 298 298 297 297 297 296 295 295 296 296 297 297 296 297 297 298 298 298 298 298 298 298 297 297 297 297 296 296
291 294 295 296 297 297 298 299 299 299 299 300 300 300 300 299 298 297 295 293 291 289 289 289 289 290 290 289 289 289 289 290 290 291 292 292 293 293 293 294 294 293 294 294 294 295 295 296 296 296 296 296 297 297 297 297 297 297 297 297 296 296 296 295 295 295 295 295 295 295 296 296 296 296 296 297 297 297 297 297 297 297 297 297 297
291 292 294 295 296 297 297 298 297 297 297 298 298 298 298 297 297 296 292 290 289 288 288 288 288 288 288 287 287 287 286 286 287 287 287 287 288 288 288 289 288 288 289 289 289 290 291 292 294 294 295 295 295 295 296 296 296 296 296 296 296 296 296 295 295 294 294 294 295 295 295 294 295 295 296 296 296 297 297 296 296 296 296 297 297
290 291 292 294 295 296 297 296 295 295 295 296 296 296 296 296 294 293 290 288 287 287 287 287 287 287 287 286 286 286 286 286 286 286 286 286 286 286 286 286 286 286 286 286 286 286 287 288 289 290 291 292 293 293 294 294 294 295 295 295 295 295 295 295 294 294 293 293 294 294 293 293 294 294 295 295 295 296 296 296 296 296 296 296 296
289 290 291 293 294 294 295 294 293 293 293 293 294 293 293 293 292 290 289 287 287 287 287 286 286 286 286 286 286 286 286 286 286 286 286 285 286 286 286 286 286 286 286 286 286 285 285 286 286 287 287 287 288 289 290 291 292 293 294 294 294 294 294 293 293 293 293 293 293 293 293 293 293 294 294 295 295 295 296 296 297 297 297 297 297
Wind_Speed
16 20 26 24 22 20 17 17 16 16 16 15 15 15 14 13 12 12 12 11 10 10 10 9 9 9 9 9 9 9 10 11 11 11 10 10 10 9 8 8 9 8 8 8 9 10 11 11 11 12 13 13 13 14 13 12 12 11 11 10 9 9 9 9 9 10 10 10 10 10 10 10 10 11 11 10 10 10 11 11 12 13 13 12 11
17 22 26 26 23 21 18 17 16 16 16 15 15 14 14 13 12 12 11 11 10 10 10 9 9 8 8 8 9 9 9 9 10 10 10 9 9 8 7 7 7 7 7 7 8 8 9 10 10 10 11 12 12 12 12 11 10 10 10 9 8 7 8 8 9 10 10 10 10 10 9 9 9 11 10 10 9 9 10 10 12 13 13 11 11
17 23 26 27 24 23 20 17 17 16 16 16 15 14 14 13 12 11 11 10 9 9 10 9 9 8 8 7 8 9 9 8 9 9 9 8 8 8 8 7 6 6 6 6 6 7 7 8 9 8 9 9 10 10 10 10 9 9 9 9 8 7 7 7 8 8 8 9 9 8 8 9 10 10 10 10 10 10 10 10 11 12 12 11 11
19 23 26 28 25 24 22 19 18 17 16 16 15 15 14 13 12 11 11 10 8 8 8 9 8 8 7 7 8 8 8 8 8 8 8 7 7 8 8 8 7 6 5 5 5 5 6 7 6 6 6 7 7 7 8 8 8 7 6 6 6 6 6 6 7 7 7 8 8 8 9 10 10 9 9 10 10 11 11 11 11 11 11 10 11
19 22 25 28 26 26 23 20 19 18 17 17 16 15 15 14 13 12 11 10 8 8 8 8 7 7 7 7 8 8 9 8 9 8 7 6 7 6 6 7 7 6 4 5 6 4 4 5 4 4 4 4 4 4 4 5 5 5 5 4 3 4 4 4 5 5 6 6 6 8 9 9 10 9 8 9 10 10 10 11 11 10 10 9 9
18 21 24 28 26 26 25 22 20 20 19 18 18 16 16 14 14 12 11 10 8 8 8 7 6 6 6 7 7 8 8 7 8 7 6 7 6 5 4 5 6 6 3 4 6 4 3 2 1 1 1 1 2 1 1 2 3 3 3 3 2 1 0 1 2 3 4 4 5 7 8 8 8 7 7 7 9 9 10 11 10 10 9 9 8
16 19 22 26 27 26 25 24 21 20 20 19 19 18 17 15 15 13 12 11 9 8 8 7 6 6 6 6 6 7 7 7 7 6 5 6 6 5 4 5 6 5 3 3 4 4 4 2 2 2 1 1 2 2 3 4 5 5 4 3 3 3 3 3 2 1 2 3 4 6 7 6 6 5 5 6 7 8 9 10 10 9 9 9 8
14 18 20 24 26 26 25 24 23 21 20 20 19 19 18 16 16 14 13 12 10 9 9 8 7 6 6 6 6 6 6 6 5 5 4 4 5 4 3 4 5 5 4 3 4 3 3 3 4 4 3 3 4 4 5 5 6 6 5 4 4 5 5 5 4 3 1 3 5 4 5 5 5 5 5 5 7 7 8 9 9 8 8 8 7
13 17 18 22 25 25 25 24 23 22 21 20 20 20 18 17 16 16 14 13 12 10 9 9 8 7 7 7 7 7 7 6 5 4 3 3 4 3 2 3 4 4 3 3 3 2 2 3 5 6 5 4 5 6 5 6 6 7 6 6 5 5 5 6 5 4 2 4 4 2 4 5 5 5 5 5 6 6 6 7 8 7 7 7 7
11 16 17 20 23 25 25 24 24 23 21 20 21 20 18 17 17 16 15 13 12 11 10 10 9 8 7 7 7 7 7 6 5 3 1 2 3 2 2 2 3 3 3 3 3 3 3 5 5 5 7 8 6 6 6 6 7 7 6 5 4 3 3 4 5 4 4 4 3 1 2 3 4 5 5 5 5 5 5 6 7 6 6 6 6
10 15 17 19 21 24 25 24 24 23 22 20 21 20 19 17 16 16 14 13 12 11 11 10 10 9 9 8 7 7 6 5 4 3 1 1 2 2 2 2 3 2 3 3 2 3 6 7 5 5 9 10 7 5 6 6 6 6 4 3 2 2 1 2 3 4 4 4 3 2 2 1 3 3 3 3 4 4 4 5 6 5 4 4 5
9 13 15 17 19 23 25 25 24 23 22 21 21 20 19 18 16 16 15 14 12 12 11 11 11 9 9 9 8 7 6 5 5 4 2 1 2 2 2 3 3 2 2 1 1 4 6 4 6 10 13 13 9 5 5 6 5 4 3 3 3 2 1 1 2 3 4 4 4 3 2 1 1 2 2 2 2 3 4 4 4 2 2 2 3
8 12 13 15 17 20 24 25 24 23 23 21 21 20 19 19 17 16 16 15 13 13 11 11 12 10 10 10 9 8 7 6 6 5 4 2 2 2 3 3 3 2 2 3 2 2 3 5 10 13 14 14 10 6 5 4 3 3 3 4 3 3 2 1 1 3 4 4 4 4 3 3 2 2 2 3 2 3 3 3 2 1 1 2 1
6 9 11 13 14 17 21 24 25 23 23 22 21 20 19 19 18 17 17 16 14 13 12 12 13 11 10 10 10 9 8 8 7 7 5 4 3 2 3 4 3 2 3 3 3 3 3 6 10 11 12 14 9 5 3 2 2 2 3 4 4 3 2 1 1 3 4 4 5 4 4 4 3 3 2 2 2 2 2 1 1 1 1 1 2
6 7 9 11 12 15 18 22 25 24 23 23 22 21 20 20 19 18 17 16 15 15 14 13 13 13 12 11 10 10 9 9 8 8 7 6 5 4 3 3 4 3 3 4 5 6 6 6 9 11 12 13 8 4 2 1 2 2 3 4 4 3 2 0 1 2 4 5 5 5 5 5 4 3 0 1 1 2 1 2 2 2 2 2 3
6 7 9 10 11 13 16 20 24 25 24 23 23 22 21 20 21 20 18 17 16 16 15 14 14 14 13 13 11 11 11 9 9 9 8 7 6 6 4 3 4 3 4 5 6 7 7 8 10 12 12 13 9 4 2 1 2 2 3 3 4 3 2 1 1 2 4 5 6 6 6 6 5 3 2 2 1 1 2 2 2 3 4 4 4
7 8 10 10 11 12 14 18 21 25 25 24 24 23 22 21 21 21 19 17 17 17 17 16 15 15 15 14 13 12 12 11 10 9 9 8 7 7 5 4 4 4 4 6 6 6 8 10 11 12 13 12 9 5 3 2 2 2 3 3 3 4 3 2 1 1 3 5 6 6 6 6 6 4 2 2 2 2 4 3 2 3 4 5 6
7 9 10 11 12 12 13 15 19 23 25 25 25 24 24 22 21 22 21 18 17 17 18 17 16 16 16 16 15 14 14 12 11 10 9 9 8 7 6 5 4 4 5 6 7 7 9 11 11 12 13 11 8 7 5 3 2 2 2 3 3 3 3 3 2 1 2 4 5 6 6 6 7 6 3 1 2 3 4 4 4 4 4 5 6
9 10 10 11 12 12 13 14 17 21 24 25 25 24 24 23 22 22 22 20 18 17 18 18 17 17 17 17 17 15 15 14 12 10 10 10 10 9 7 5 4 5 7 7 7 8 9 10 11 12 13 12 10 7 6 4 2 2 2 2 3 3 3 3 3 2 2 3 4 5 6 6 7 6 4 2 2 3 4 5 6 7 6 5 5
11 11 11 12 13 13 14 14 16 19 22 25 25 24 24 23 22 22 22 21 19 17 17 18 18 18 18 18 17 17 16 15 14 11 10 11 11 9 8 7 6 8 8 8 8 8 9 10 11 12 13 13 11 8 6 5 3 3 3 3 3 3 3 3 3 3 3 2 3 4 6 6 7 6 4 2 3 3 5 7 8 8 7 6 5
11 12 12 12 13 15 15 15 16 17 20 23 25 25 24 24 22 21 21 21 20 18 17 18 18 18 18 18 18 18 17 16 14 12 11 11 11 10 10 10 9 10 8 9 9 9 9 10 12 12 13 13 10 8 7 6 5 4 4 3 3 3 3 3 3 3 3 3 3 4 5 6 6 5 3 3 5 7 8 9 8 7 6 5 5
10 11 12 13 15 16 17 17 17 17 18 21 23 25 25 24 23 22 21 21 21 19 18 18 19 18 18 18 18 18 18 17 13 11 11 12 13 11 11 12 11 10 9 9 9 9 10 10 11 12 13 12 9 9 8 6 6 5 5 5 4 4 3 3 3 3 4 4 3 4 4 5 5 3 3 4 6 9 9 8 7 6 5 4 5
12 12 12 12 15 17 18 18 18 18 18 20 22 23 24 24 24 23 22 21 21 21 19 18 19 18 19 18 18 18 19 18 15 12 12 13 14 13 12 13 12 12 11 9 7 8 10 11 12 12 13 12 9 9 9 7 7 6 6 6 5 4 4 4 4 4 4 4 4 4 4 5 5 4 3 4 6 7 7 6 6 5 4 4 4
16 15 14 12 14 16 18 19 19 19 19 20 22 22 23 24 24 24 23 22 22 22 20 20 20 19 18 18 18 18 18 18 17 14 14 15 16 15 14 14 14 13 12 8 5 8 10 11 14 14 14 13 10 9 10 8 8 7 7 6 6 5 5 5 5 5 5 5 5 5 5 5 6 5 4 3 5 7 6 4 5 4 3 3 4
14 14 14 13 13 15 17 19 20 20 20 21 22 23 23 23 23 24 24 23 23 23 22 21 20 20 19 18 18 19 18 17 17 17 15 15 15 16 15 14 16 14 10 7 4 7 10 13 15 16 15 15 13 10 10 10 9 9 8 7 7 6 6 6 6 6 5 5 5 5 5 6 6 6 5 4 4 7 6 4 4 3 2 3 4
14 13 11 11 13 14 16 18 20 21 20 21 21 22 22 22 22 22 22 23 23 22 23 23 21 21 20 19 19 19 19 17 17 17 16 16 15 16 17 17 19 16 11 9 8 10 11 14 16 17 16 15 14 13 11 11 10 9 9 8 8 7 8 7 7 6 6 6 5 5 6 6 6 7 7 5 5 6 6 3 3 2 3 4 4
17 15 13 10 10 12 15 16 18 20 20 20 20 21 21 21 21 20 21 21 21 19 19 21 22 21 20 20 20 20 19 18 17 16 15 18 16 14 18 19 19 18 13 12 13 12 10 14 17 17 17 16 15 14 12 12 12 11 10 10 9 9 9 9 8 7 7 6 6 6 6 6 6 6 7 7 5 5 5 4 3 3 4 4 4
19 18 15 11 9 9 13 16 16 17 18 19 19 20 19 19 19 19 19 19 20 21 18 16 19 21 22 20 19 21 20 18 18 16 16 18 16 14 17 18 17 17 15 12 13 11 10 15 17 17 16 16 16 15 14 13 13 13 12 11 11 11 10 10 10 9 8 7 7 6 6 6 7 7 7 7 6 5 5 5 4 5 6 5 5
22 21 19 15 11 8 8 13 15 14 15 18 18 18 18 17 18 18 18 18 18 19 18 17 17 18 21 19 18 22 24 22 20 17 17 17 18 18 18 20 20 20 17 14 14 12 14 16 17 17 16 17 16 16 15 15 15 15 14 13 12 12 12 11 11 10 9 9 8 7 7 7 7 7 7 8 8 6 6 7 6 6 7 6 6
23 22 21 18 14 10 5 5 10 11 11 14 16 16 16 16 16 16 16 17 16 15 15 17 18 17 18 18 18 22 24 24 19 15 16 19 21 20 18 19 21 22 21 16 14 14 17 17 16 16 16 17 17 16 16 16 16 16 16 15 14 13 13 12 11 10 10 10 9 8 8 8 7 8 8 8 9 7 6 7 8 8 8 8 7
23 23 22 20 15 11 7 3 2 4 6 10 13 13 14 14 14 14 14 15 16 15 14 16 17 17 17 16 16 20 20 18 18 14 13 17 19 16 15 18 20 20 18 12 14 17 20 19 16 16 16 17 17 17 17 17 16 16 17 17 16 14 13 13 12 11 11 10 11 10 9 9 9 9 9 9 10 9 7 7 8 9 9 9 8
22 23 22 20 17 13 11 7 5 3 1 4 8 9 10 10 10 11 11 12 13 14 14 14 15 15 13 13 14 14 14 13 16 15 12 15 17 16 15 17 19 18 16 16 19 20 20 18 17 16 16 17 18 18 18 17 17 17 17 17 17 16 15 14 13 12 12 12 12 12 11 11 10 10 9 10 10 11 10 9 9 10 9 9 9
21 21 21 21 19 16 13 10 9 8 6 3 2 3 4 5 6 6 7 8 9 11 11 9 10 12 11 11 12 11 12 13 13 14 14 14 14 16 16 15 18 19 20 21 20 20 19 18 18 16 16 17 18 18 18 18 18 18 18 18 18 18 18 17 16 15 14 14 14 14 13 13 12 11 11 11 11 12 12 12 11 11 11 10 9
20 21 22 22 21 18 15 13 12 11 9 8 5 4 2 2 2 2 4 6 7 7 8 9 8 10 12 12 10 9 11 12 11 12 13 13 12 13 15 15 16 17 17 18 19 20 20 19 18 17 17 17 18 18 18 19 18 18 18 18 19 19 20 20 19 18 18 17 16 16 15 14 14 13 12 12 12 13 13 14 13 13 13 13 13
20 22 23 23 22 20 18 17 15 14 13 11 10 9 8 6 5 3 1 1 2 2 3 6 6 7 8 9 10 10 11 12 11 12 12 14 14 15 16 16 15 15 15 16 19 20 19 19 18 18 18 18 17 16 17 18 18 18 18 18 20 20 20 20 21 20 20 20 19 18 17 16 16 15 14 13 14 14 14 15 15 15 15 15 15
21 21 22 23 24 23 22 20 19 18 16 15 14 13 11 10 10 9 8 7 9 12 13 10 8 7 5 4 5 6 7 9 10 11 12 13 14 15 16 16 17 17 17 18 18 18 18 19 19 18 19 18 17 16 15 15 17 17 17 18 19 19 19 19 19 20 20 21 22 21 19 18 18 17 16 15 15 15 15 16 16 17 16 16 17
21 21 22 23 25 25 25 25 24 23 22 20 19 18 18 17 17 17 16 15 15 19 20 19 19 19 17 15 13 11 9 6 4 4 5 6 8 9 10 12 13 14 14 15 16 16 17 17 17 17 18 18 17 17 16 15 16 16 16 17 17 18 18 18 19 20 21 22 22 22 22 21 20 19 18 17 17 17 17 17 17 18 18 18 18
22 22 22 23 25 26 27 28 28 27 27 26 26 26 25 24 24 23 22 23 22 21 21 19 22 23 22 22 20 19 18 16 14 11 9 7 7 7 8 8 9 9 9 10 11 13 13 13 14 15 15 16 16 17 17 17 17 17 17 17 17 17 18 19 20 20 21 23 24 24 23 23 22 22 20 19 19 19 19 19 19 19 19 19 19
22 22 22 22 24 25 26 27 28 28 29 28 29 29 28 27 27 26 25 27 25 24 23 21 22 22 23 23 21 20 19 18 18 16 16 15 13 13 11 11 10 10 9 8 9 10 10 11 12 12 12 13 14 16 17 17 17 17 18 19 18 18 18 19 20 21 22 24 25 25 25 25 25 24 24 23 22 21 21 21 20 20 20 19 20
22 22 22 22 23 24 24 26 26 26 27 27 27 27 27 27 26 26 27 28 26 26 25 24 24 23 22 22 21 21 20 19 19 18 17 17 17 16 15 15 14 12 11 9 8 8 9 10 11 11 12 12 13 15 15 16 16 17 19 19 18 18 19 19 19 20 20 22 24 25 26 26 26 26 26 25 24 24 23 23 23 22 21 21 21
24 24 24 25 25 24 25 26 24 23 23 24 24 24 24 25 27 28 28 28 26 26 25 24 24 23 21 20 20 20 19 19 19 18 17 17 16 16 15 15 15 14 13 12 11 11 10 10 10 10 11 11 12 12 13 13 12 13 15 17 18 18 17 16 16 17 18 19 20 22 23 25 27 27 27 27 26 26 26 26 25 24 23 23 22
23 24 25 24 25 26 26 27 26 24 24 24 23 24 24 24 27 28 28 28 27 26 27 26 24 22 20 19 18 18 18 18 18 17 17 17 17 16 16 16 14 14 13 12 12 11 11 11 10 11 11 10 11 10 11 10 7 8 10 12 14 14 13 13 14 13 13 14 16 18 20 21 23 24 26 28 28 29 29 28 28 27 26 25 24
22 23 23 24 25 26 26 27 27 26 27 26 26 27 27 26 26 27 27 28 29 28 27 26 24 23 23 21 20 19 18 18 18 17 17 17 18 18 18 17 15 14 13 12 11 11 11 10 10 10 10 9 9 8 9 8 6 8 8 6 5 7 9 9 9 12 15 16 16 14 15 18 20 21 23 25 26 28 29 29 30 30 30 29 28
23 23 23 23 25 26 25 25 26 26 26 26 27 27 27 27 28 28 27 28 28 26 25 25 25 25 25 24 23 22 20 20 20 19 19 19 18 18 18 17 17 17 15 14 14 13 13 11 11 10 9 9 8 7 8 10 8 7 4 2 2 2 4 4 10 19 19 15 12 13 18 21 20 19 20 21 23 25 26 27 28 29 30 31 31
24 22 21 22 24 25 25 24 24 24 24 23 23 23 24 25 25 25 25 26 26 26 27 27 27 26 26 26 25 23 22 22 21 21 20 20 19 19 18 18 18 18 17 17 17 16 15 14 13 11 10 9 8 8 9 10 10 6 3 3 3 1 2 5 12 14 11 12 16 19 20 19 18 19 21 23 25 26 27 26 26 26 28 29 30
23 22 21 21 24 25 25 25 25 24 23 22 21 20 21 22 23 24 25 27 29 28 28 28 28 28 28 26 25 24 23 22 22 22 21 21 20 20 19 19 18 18 18 17 17 17 17 17 16 14 13 11 9 9 10 10 9 7 5 6 7 6 7 8 8 5 10 15 16 16 17 18 22 25 26 27 27 28 28 27 28 27 27 28 29
20 22 22 22 24 25 25 25 26 25 25 24 22 22 24 25 27 29 29 30 30 28 27 28 28 28 28 28 28 28 26 25 25 24 23 22 21 21 20 20 20 19 18 18 18 18 17 16 16 15 15 14 13 12 12 11 9 7 7 7 8 10 11 9 5 4 9 11 10 14 19 20 22 24 25 26 26 27 28 27 28 28 28 29 29
19 22 24 24 25 25 26 26 26 26 25 24 24 24 26 28 29 31 31 31 31 29 28 28 28 27 28 29 30 30 29 29 28 27 27 26 25 24 23 23 23 23 22 22 22 20 18 17 16 15 15 15 15 14 13 13 12 10 10 9 9 9 10 10 10 8 5 6 10 14 15 18 20 22 24 25 26 27 28 28 28 29 29 29 30
19 22 24 25 26 26 27 27 27 27 26 26 26 27 27 28 29 31 33 32 31 30 28 28 27 27 28 29 28 28 28 28 28 28 28 27 27 26 25 25 26 25 25 25 25 24 23 21 20 18 17 16 15 13 13 13 13 12 12 12 11 12 11 10 9 9 7 6 8 8 12 18 21 23 23 23 26 27 28 29 29 29 29 30 31
19 21 24 26 27 27 27 28 28 28 27 27 27 28 28 29 30 31 32 31 29 28 27 27 26 26 27 27 27 27 26 26 26 26 26 26 26 25 25 25 25 25 24 24 24 24 24 24 23 21 20 19 18 16 14 13 12 12 12 12 12 12 11 8 8 11 9 7 7 8 14 17 16 20 22 23 26 27 28 29 29 30 30 30 31
18 20 23 25 26 27 26 28 29 28 27 27 27 28 28 28 29 29 30 29 26 26 26 26 25 25 26 26 25 25 25 25 25 25 25 25 24 24 24 24 23 23 23 23 23 23 22 22 21 21 21 21 20 19 18 17 16 14 13 12 12 10 8 6 9 13 11 8 7 8 14 20 21 23 24 25 27 27 28 29 29 30 31 31 31
Wind_Direction
185 173 177 177 174 173 179 184 183 184 185 186 184 182 181 181 177 174 169 165 159 148 144 138 133 131 129 126 124 123 124 126 125 122 116 112 105 96 99 104 104 96 100 105 90 79 79 79 78 81 83 83 84 83 82 82 82 79 79 84 85 82 81 83 89 93 91 92 89 86 81 72 66 65 66 68 71 72 75 78 80 75 71 72 71
181 173 178 179 178 174 179 184 185 185 184 188 185 186 184 183 182 179 174 168 163 156 151 144 140 140 136 132 131 128 126 126 126 126 120 116 110 104 100 98 100 96 98 104 97 91 84 81 78 81 86 88 90 89 87 82 80 80 84 90 92 90 85 82 84 87 87 90 89 85 83 75 68 66 64 63 66 72 76 78 79 75 69 69 70
177 175 178 181 183 176 178 184 186 186 185 187 186 188 187 187 186 184 179 172 167 163 157 149 148 148 143 137 137 134 132 130 128 129 124 121 123 121 113 101 101 103 102 105 108 108 96 87 82 83 88 90 93 94 91 85 78 75 77 86 94 96 93 89 85 84 83 84 83 81 80 75 69 67 67 65 66 68 70 75 77 76 70 65 65
179 177 177 183 185 179 178 184 187 187 187 187 187 190 191 191 189 190 183 178 174 168 163 157 156 154 151 146 144 143 141 139 137 136 131 134 137 131 123 115 111 109 110 110 107 111 101 94 88 84 89 88 92 93 91 85 79 71 67 78 88 95 98 96 89 84 80 76 74 74 75 75 71 65 66 67 68 70 69 68 66 69 72 71 66
181 179 177 183 187 183 179 184 189 188 189 189 190 191 193 195 193 195 189 187 182 175 173 167 164 160 161 157 154 151 150 149 148 147 142 148 146 134 128 121 118 119 123 108 99 104 98 95 89 82 80 78 82 81 79 73 69 58 52 61 72 91 102 107 100 83 71 72 73 73 72 71 72 66 60 60 60 63 65 65 63 61 64 68 68
183 183 179 183 188 187 182 184 190 191 192 191 193 194 195 197 197 199 193 194 190 182 183 177 174 171 170 166 165 156 154 155 154 156 148 147 147 144 134 126 129 126 128 116 102 88 70 57 42 79 62 47 44 25 6 1 4 5 8 5 3 6 118 147 126 88 65 79 86 77 75 70 71 71 66 61 56 54 54 56 57 56 54 51 54
184 188 184 185 189 190 185 184 189 193 195 193 194 196 196 197 200 202 195 197 195 187 188 187 183 181 179 174 173 162 158 158 159 162 150 145 151 157 141 135 138 128 134 133 105 78 59 19 313 288 277 277 288 297 297 303 307 314 319 320 316 297 273 245 222 150 76 101 112 88 81 73 68 71 70 63 63 60 49 47 47 48 50 44 41
183 193 191 188 191 192 188 186 190 193 196 197 197 198 198 198 202 202 198 199 199 192 191 192 188 191 189 179 179 169 162 162 166 165 152 149 154 161 147 136 135 133 137 118 102 81 65 32 336 307 290 270 268 279 285 294 301 305 306 306 298 290 271 250 237 206 135 137 147 115 94 72 65 72 67 53 57 59 46 40 38 40 42 42 43
185 196 197 194 194 194 193 190 191 194 197 200 200 201 199 198 203 203 202 203 202 199 195 195 193 199 196 181 182 177 169 168 175 174 160 159 158 163 160 145 139 139 138 114 92 47 41 29 353 326 314 303 278 274 283 293 299 304 306 306 297 290 269 246 231 211 178 167 184 158 106 72 64 65 54 41 41 44 38 28 26 34 36 38 43
190 197 202 201 198 197 197 195 194 197 199 202 203 204 201 201 207 205 205 205 204 202 196 198 196 199 199 187 185 180 174 173 181 193 177 169 171 184 187 163 158 149 136 112 84 52 17 4 354 329 321 328 305 277 279 291 296 300 305 312 314 299 267 235 219 206 193 190 218 221 111 77 68 61 40 29 26 23 22 20 24 30 38 41 39
196 198 205 206 204 201 201 200 198 199 200 203 207 206 202 205 211 209 209 208 206 205 198 199 199 196 195 192 189 181 176 178 190 214 220 164 170 185 206 185 172 150 122 90 66 29 2 359 353 327 327 336 326 293 282 285 291 295 307 328 346 339 274 210 200 196 194 199 222 213 146 86 73 71 44 22 12 15 17 29 40 37 47 50 38
200 200 206 210 210 205 204 205 203 203 202 205 211 209 204 207 214 214 214 212 209 209 205 203 203 198 196 195 193 190 190 192 198 215 225 166 150 155 168 183 171 148 131 113 23 356 359 354 332 322 324 328 322 312 296 283 288 298 329 354 8 23 30 152 180 187 190 198 208 197 173 149 104 79 26 16 23 44 43 50 66 56 47 48 35
203 200 206 213 214 210 208 208 208 206 206 208 214 214 209 210 216 218 217 215 213 213 211 209 207 202 200 202 200 199 203 204 202 211 217 175 140 139 146 168 172 171 207 215 238 324 342 320 314 311 318 325 314 305 304 285 298 321 351 6 11 20 36 87 157 178 188 198 196 195 183 158 143 101 42 46 52 56 61 64 90 58 24 53 35
209 205 207 214 216 216 212 211 212 210 210 210 215 218 215 215 218 221 220 218 215 215 215 213 210 203 204 209 210 208 212 214 210 215 218 191 165 156 155 169 178 195 242 253 267 280 315 328 310 301 318 329 318 298 306 300 318 353 360 6 11 15 24 64 157 179 188 196 195 195 182 167 159 133 80 55 41 30 41 15 38 8 318 289 289
212 216 214 217 219 220 217 215 214 214 214 213 216 219 218 218 219 221 223 222 216 216 215 216 211 205 209 211 215 218 222 222 217 220 219 204 187 185 184 183 184 215 260 289 301 291 294 303 293 300 316 323 327 311 304 332 337 10 7 4 5 6 11 3 176 191 192 195 200 197 187 181 177 160 158 342 348 338 317 291 302 310 279 283 292
210 217 219 222 223 225 223 220 218 217 216 216 217 219 220 220 221 222 223 224 219 218 217 218 214 208 212 216 218 219 224 228 225 223 214 212 207 195 197 203 204 237 276 307 316 307 302 291 283 296 304 309 323 325 306 330 345 11 4 1 358 358 5 348 218 209 202 200 201 199 197 195 187 175 196 221 213 320 299 282 277 288 288 286 285
216 218 219 221 224 227 229 226 223 219 218 218 219 220 222 221 222 223 223 224 222 221 219 220 218 212 214 220 222 221 225 229 229 227 215 213 215 202 199 210 221 245 280 303 315 310 296 287 281 291 301 307 317 318 305 307 331 1 357 349 348 348 350 346 325 240 218 211 207 204 203 200 196 183 190 224 220 266 278 266 252 270 281 280 277
230 229 225 225 225 228 232 231 227 222 220 219 221 223 224 224 224 225 224 225 223 223 221 221 219 215 216 220 224 225 226 231 233 233 224 216 215 212 211 213 224 254 280 298 308 290 277 281 281 288 300 308 312 311 299 291 314 331 339 335 334 337 336 337 332 303 249 229 220 215 210 206 205 195 191 229 247 271 275 269 257 257 260 278 281
243 243 236 234 232 233 235 236 233 227 223 221 223 224 227 228 226 227 227 227 227 226 224 223 220 216 219 221 225 227 228 233 237 240 235 227 219 217 223 224 246 279 286 300 309 286 273 280 282 285 296 301 302 302 292 279 290 305 315 317 317 323 324 327 324 319 297 258 239 232 223 216 215 211 207 218 274 286 283 279 270 268 265 273 287
249 254 248 244 240 240 239 240 239 233 228 225 225 226 229 231 230 230 230 230 229 230 229 226 222 219 223 225 227 229 230 235 239 242 240 234 229 228 232 227 255 277 282 302 310 296 281 280 284 286 293 297 294 292 286 273 272 284 290 295 301 309 311 316 316 315 310 283 261 247 232 224 221 223 236 255 271 284 290 287 281 282 280 272 280
249 255 256 253 246 245 244 242 241 238 234 229 228 228 229 233 235 234 232 234 232 232 234 230 227 225 227 229 231 231 231 236 242 244 238 234 235 241 243 233 252 268 275 294 299 304 298 289 291 290 294 298 290 281 277 269 273 276 277 286 287 291 299 303 310 309 305 297 283 264 242 233 227 228 259 269 272 279 284 289 288 291 291 283 283
263 261 260 259 254 250 248 245 242 240 237 234 231 230 231 231 235 237 235 236 235 234 234 232 231 231 233 234 234 234 234 237 241 244 242 239 237 242 249 240 247 264 276 292 295 302 305 303 301 296 300 306 292 272 268 262 267 273 272 279 282 285 292 297 301 300 295 293 289 275 253 242 231 228 261 268 276 282 287 295 294 294 298 297 299
293 281 270 264 260 255 251 248 245 242 238 236 234 233 233 232 231 235 238 238 238 237 236 234 232 233 237 238 238 238 238 240 240 239 242 243 241 243 248 245 247 263 272 279 293 298 302 307 304 302 308 316 302 267 260 257 257 265 269 273 282 287 291 295 292 290 290 289 289 279 265 254 240 232 262 280 285 292 300 300 297 301 304 308 313
310 294 280 271 267 262 256 252 248 245 241 237 235 233 233 234 232 232 236 238 239 238 239 239 236 236 238 237 239 241 242 246 246 242 240 238 240 242 241 244 245 253 261 260 283 293 297 304 303 307 312 320 314 274 259 257 254 257 263 269 276 284 285 286 281 282 286 284 286 282 274 266 256 250 262 289 294 301 308 298 301 311 307 310 319
331 311 290 275 269 266 261 255 251 247 243 240 236 235 233 233 234 233 234 236 238 237 239 242 240 240 240 238 238 241 242 245 251 252 250 244 243 243 237 249 250 240 243 243 269 292 292 299 301 306 309 315 317 294 269 258 255 255 257 264 269 278 279 276 273 272 274 274 276 277 276 272 269 266 264 277 288 299 308 296 300 318 310 308 324
2 350 327 296 276 266 259 252 251 248 245 242 239 238 235 233 234 235 237 238 238 237 235 237 240 241 241 241 239 241 242 242 250 253 259 260 253 250 244 247 246 235 233 242 274 298 294 296 296 299 302 307 313 306 284 263 257 257 259 264 266 272 275 273 270 267 265 264 265 267 270 271 272 270 266 264 268 292 303 283 280 301 299 300 314
12 8 358 336 300 274 260 249 246 248 246 243 240 239 237 235 236 236 238 237 237 242 241 234 233 239 243 246 244 244 244 241 241 243 255 257 243 251 256 244 233 229 231 251 283 295 295 298 291 290 296 300 306 306 295 273 263 261 261 265 266 269 272 272 269 266 265 260 262 265 267 269 268 268 265 258 252 277 286 266 252 252 272 283 288
16 14 9 360 336 294 265 251 243 244 246 244 240 239 238 236 236 238 240 237 238 246 253 249 237 236 236 242 249 246 245 244 243 246 253 252 242 254 266 255 244 235 229 250 281 286 295 303 290 284 292 296 300 303 299 286 274 267 263 264 266 267 268 269 267 265 265 261 262 265 269 272 270 269 265 257 248 255 264 259 249 246 260 267 264
19 16 14 12 1 334 281 253 244 239 240 243 240 238 238 237 236 239 242 244 244 241 245 258 260 249 232 230 243 244 244 241 238 247 251 253 255 260 260 252 249 242 239 259 270 272 293 301 289 283 289 294 297 299 299 294 285 275 267 264 263 265 266 265 265 265 266 265 267 268 269 273 274 273 269 262 255 251 251 252 256 254 252 258 261
21 21 21 20 17 7 341 262 246 238 231 235 237 238 239 240 239 239 243 247 253 248 243 256 269 270 250 236 238 239 240 237 234 249 257 255 251 251 258 258 254 240 236 253 261 269 286 287 282 282 289 294 294 296 296 295 291 282 274 270 267 265 265 263 262 264 267 270 273 274 273 275 277 277 277 271 265 261 253 251 259 265 259 257 262
23 27 28 27 28 30 33 34 252 241 227 225 231 237 240 242 244 246 249 251 259 262 257 260 269 279 275 264 253 235 227 233 240 246 256 259 249 247 265 270 266 248 237 255 271 274 277 273 274 280 290 295 292 291 292 293 292 287 280 276 274 271 268 266 265 267 270 274 278 279 277 277 280 280 280 278 272 269 267 263 258 258 262 262 265
28 30 32 34 36 42 50 57 67 71 119 218 227 237 242 248 254 258 262 262 265 269 267 262 264 277 285 286 281 253 238 254 258 253 261 267 257 256 266 270 268 259 258 268 269 269 269 267 271 276 287 293 290 290 291 291 292 289 285 281 279 279 277 273 273 277 277 279 281 281 281 280 280 280 279 278 277 275 274 272 259 247 251 260 267
32 37 40 43 43 46 54 59 67 74 78 96 186 231 252 264 275 282 289 286 279 281 283 278 269 275 283 285 292 287 278 279 269 264 269 267 258 251 257 270 269 260 258 259 261 265 266 265 269 273 284 289 288 290 291 291 291 290 288 285 283 284 285 283 282 284 285 286 285 283 282 282 281 280 279 276 275 276 274 273 269 256 249 251 254
38 47 49 51 53 55 59 62 67 74 79 84 88 87 67 36 10 328 304 286 277 277 278 278 275 271 272 275 282 291 287 282 277 272 266 261 261 255 255 266 269 263 261 262 265 267 264 264 269 272 278 281 283 289 292 293 293 292 291 288 288 288 289 288 287 288 290 291 288 285 283 282 282 280 279 278 275 274 272 272 271 266 258 254 250
45 52 55 59 62 65 68 71 75 78 81 85 87 89 86 85 83 75 56 289 294 326 292 276 281 276 270 271 275 278 275 277 280 280 276 269 267 261 257 259 261 264 266 267 268 267 266 267 268 270 272 273 277 285 294 298 297 295 295 293 294 294 292 290 288 289 292 293 290 287 284 281 282 281 280 279 277 274 272 272 271 268 265 259 255
49 56 61 67 70 73 76 79 80 81 83 86 90 94 94 93 92 90 85 75 66 63 63 62 53 43 27 1 324 300 285 277 271 268 267 263 260 256 253 256 259 261 262 264 265 265 265 263 262 263 266 269 273 280 289 299 301 298 299 298 298 298 296 294 292 291 292 292 290 287 285 282 282 282 282 281 279 277 274 272 271 269 267 264 261
54 60 66 70 73 76 80 83 85 87 88 90 93 95 95 94 90 88 87 83 76 71 69 66 63 63 61 58 55 53 47 32 2 312 285 273 275 273 270 273 277 276 272 268 263 259 259 259 258 258 259 263 270 277 282 291 296 297 298 298 299 300 301 300 298 296 293 290 289 287 286 285 284 283 283 283 281 280 278 274 272 271 270 268 266
62 66 70 74 77 79 84 88 91 94 95 96 97 96 96 94 92 89 87 84 80 76 72 67 63 62 63 62 61 58 56 55 53 49 45 33 15 1 345 333 326 320 306 290 277 268 265 264 262 260 260 260 265 274 281 287 291 293 295 296 297 298 299 300 298 297 295 292 290 288 287 287 286 285 284 284 282 281 279 278 276 273 272 271 268
66 71 75 80 83 84 88 92 95 98 99 101 101 100 99 96 93 90 85 81 78 75 72 70 66 62 60 58 56 54 53 53 53 53 55 51 45 39 33 30 22 12 3 341 313 298 291 287 282 279 277 274 275 280 284 288 292 293 294 295 294 294 295 295 296 297 296 295 293 291 290 289 288 287 285 284 283 282 281 280 280 277 275 273 270
66 71 77 82 85 87 91 93 95 99 103 104 102 101 99 96 92 87 81 77 76 75 71 69 67 64 60 57 55 55 55 54 54 53 53 52 51 50 48 44 39 34 32 21 360 344 335 326 316 306 302 300 297 294 292 295 300 301 300 299 298 298 299 297 297 299 299 298 296 294 293 291 290 289 288 286 285 283 282 281 281 280 278 274 271
64 67 72 76 80 85 89 89 91 97 100 99 98 96 94 92 90 86 81 77 76 75 72 68 66 64 60 56 53 53 53 52 51 49 48 48 47 45 43 42 40 40 40 38 29 17 8 356 346 335 327 324 318 312 310 312 318 317 312 310 310 308 305 304 304 305 303 300 298 297 297 294 291 290 288 287 286 284 283 283 283 283 281 277 274
58 61 66 71 78 84 86 87 89 92 93 93 93 92 91 92 91 89 86 81 77 75 73 70 68 67 63 58 55 52 49 48 45 43 45 45 44 42 42 42 41 40 38 35 28 22 18 11 5 358 353 346 337 331 328 329 336 333 323 318 320 320 315 313 313 313 313 311 307 302 299 296 297 297 292 289 288 286 285 285 285 284 283 281 277
60 62 65 71 78 83 84 88 90 92 92 93 94 94 94 95 94 92 90 86 80 78 77 73 70 69 66 64 62 58 54 52 49 46 47 48 48 47 45 42 40 37 33 31 28 25 23 19 15 8 4 0 352 347 347 349 338 327 330 322 326 338 326 324 328 324 321 317 314 312 308 307 310 309 300 296 294 291 289 288 288 287 286 285 282
67 64 64 69 76 81 84 89 92 94 95 96 97 98 99 97 95 93 92 90 86 83 80 73 69 67 65 64 61 60 60 60 59 56 55 55 53 53 51 48 46 43 40 40 38 35 32 29 26 24 19 13 6 3 0 1 354 338 337 317 320 333 307 331 335 322 318 315 314 319 317 314 314 313 307 306 307 304 302 298 295 294 292 289 288
71 67 65 69 77 83 86 89 92 94 96 98 100 103 103 102 101 97 93 88 81 75 72 68 66 65 63 62 61 61 61 63 63 62 61 60 59 58 56 54 53 50 46 45 44 40 36 33 30 29 28 23 16 13 7 4 1 344 302 278 305 311 265 333 333 319 315 311 307 311 313 312 313 313 310 310 310 308 307 305 302 300 298 296 293
74 75 75 76 82 88 90 92 93 94 96 98 103 107 106 104 101 93 87 81 72 66 66 66 67 67 65 64 63 63 63 64 64 64 64 63 62 60 57 56 53 50 47 44 43 39 35 33 30 26 26 24 18 18 14 5 0 351 328 293 280 274 279 317 332 310 307 305 300 303 305 305 307 306 306 306 306 306 305 304 303 302 301 300 297
77 84 86 85 86 90 92 93 93 93 95 97 100 100 98 96 92 87 84 82 79 74 74 74 74 74 73 70 68 66 65 65 65 64 64 63 62 61 58 57 54 50 46 42 40 36 33 32 29 27 26 22 19 20 15 6 4 1 352 327 300 292 289 294 291 290 311 304 292 298 300 302 304 304 304 305 305 306 306 305 304 304 302 301 300
83 89 91 90 90 90 92 93 93 94 95 95 94 93 92 92 91 90 88 87 87 85 84 82 81 80 77 74 71 69 67 66 66 65 64 63 62 62 60 60 58 55 52 49 45 39 35 30 26 25 23 22 23 22 17 13 10 359 349 341 332 323 309 297 283 273 281 295 299 302 302 305 304 301 302 303 304 305 306 306 305 305 304 303 301
89 91 93 94 95 94 94 93 93 94 95 94 92 91 92 93 93 93 92 91 91 91 89 86 83 81 79 75 73 71 68 67 66 64 64 63 62 62 61 61 59 58 56 55 52 47 43 38 32 27 23 22 23 20 16 15 14 7 359 352 346 341 332 321 302 283 263 274 299 307 310 311 306 301 301 301 302 302 302 303 303 303 302 302 301
95 97 98 99 98 98 96 94 94 95 95 95 94 94 95 94 94 96 96 96 94 93 90 85 81 78 76 73 71 69 67 65 64 63 61 60 59 58 58 58 57 56 55 53 51 48 46 44 40 37 33 30 26 22 18 12 9 7 4 2 360 355 346 337 325 315 300 276 278 298 308 312 308 303 302 301 299 299 299 299 299 299 299 299 299
103 103 102 102 101 100 99 98 97 98 98 97 97 97 97 96 97 98 98 96 94 92 86 80 77 75 72 69 67 65 63 61 60 59 57 55 54 54 53 53 52 51 50 49 48 45 44 42 41 39 36 34 30 26 23 18 13 8 4 2 0 359 349 327 318 319 316 298 292 301 307 309 304 299 301 303 300 298 297 296 296 297 298 298 298